station,date_time,water_elev
365056089163601,05/04/2011 02:15,310.93
365056089163601,05/04/2011 02:16,310.94
365056089163601,05/04/2011 02:17,310.94
365056089163601,05/04/2011 02:18,310.94
365056089163601,05/04/2011 02:19,310.94
365056089163601,05/04/2011 02:20,310.94
365056089163601,05/04/2011 02:21,310.94
365056089163601,05/04/2011 02:22,310.94
365056089163601,05/04/2011 02:23,310.94
365056089163601,05/04/2011 02:24,310.94
365056089163601,05/04/2011 02:25,310.95
365056089163601,05/04/2011 02:26,310.94
365056089163601,05/04/2011 02:27,310.94
365056089163601,05/04/2011 02:28,310.95
365056089163601,05/04/2011 02:29,310.96
365056089163601,05/04/2011 02:30,310.94
365056089163601,05/04/2011 02:31,310.95
365056089163601,05/04/2011 02:32,310.94
365056089163601,05/04/2011 02:33,310.96
365056089163601,05/04/2011 02:34,310.95
365056089163601,05/04/2011 02:35,310.94
365056089163601,05/04/2011 02:36,310.95
365056089163601,05/04/2011 02:37,310.95
365056089163601,05/04/2011 02:38,310.95
365056089163601,05/04/2011 02:39,310.96
365056089163601,05/04/2011 02:40,310.96
365056089163601,05/04/2011 02:41,310.96
365056089163601,05/04/2011 02:42,310.95
365056089163601,05/04/2011 02:43,310.96
365056089163601,05/04/2011 02:44,310.96
365056089163601,05/04/2011 02:45,310.96
365056089163601,05/04/2011 02:46,310.96
365056089163601,05/04/2011 02:47,310.97
365056089163601,05/04/2011 02:48,310.96
365056089163601,05/04/2011 02:49,310.96
365056089163601,05/04/2011 02:50,310.96
365056089163601,05/04/2011 02:51,310.96
365056089163601,05/04/2011 02:52,310.96
365056089163601,05/04/2011 02:53,310.96
365056089163601,05/04/2011 02:54,310.96
365056089163601,05/04/2011 02:55,310.97
365056089163601,05/04/2011 02:56,310.96
365056089163601,05/04/2011 02:57,310.97
365056089163601,05/04/2011 02:58,310.96
365056089163601,05/04/2011 02:59,310.96
365056089163601,05/04/2011 03:00,310.96
365056089163601,05/04/2011 03:01,310.96
365056089163601,05/04/2011 03:02,310.97
365056089163601,05/04/2011 03:03,310.97
365056089163601,05/04/2011 03:04,310.97
365056089163601,05/04/2011 03:05,310.97
365056089163601,05/04/2011 03:06,310.97
365056089163601,05/04/2011 03:07,310.97
365056089163601,05/04/2011 03:08,310.97
365056089163601,05/04/2011 03:09,310.96
365056089163601,05/04/2011 03:10,310.96
365056089163601,05/04/2011 03:11,310.97
365056089163601,05/04/2011 03:12,310.97
365056089163601,05/04/2011 03:13,310.97
365056089163601,05/04/2011 03:14,310.97
365056089163601,05/04/2011 03:15,310.97
365056089163601,05/04/2011 03:16,310.97
365056089163601,05/04/2011 03:17,310.97
365056089163601,05/04/2011 03:18,310.97
365056089163601,05/04/2011 03:19,310.97
365056089163601,05/04/2011 03:20,310.97
365056089163601,05/04/2011 03:21,310.97
365056089163601,05/04/2011 03:22,310.97
365056089163601,05/04/2011 03:23,310.98
365056089163601,05/04/2011 03:24,310.98
365056089163601,05/04/2011 03:25,310.97
365056089163601,05/04/2011 03:26,310.98
365056089163601,05/04/2011 03:27,310.98
365056089163601,05/04/2011 03:28,310.98
365056089163601,05/04/2011 03:29,310.98
365056089163601,05/04/2011 03:30,310.98
365056089163601,05/04/2011 03:31,310.98
365056089163601,05/04/2011 03:32,310.98
365056089163601,05/04/2011 03:33,310.99
365056089163601,05/04/2011 03:34,310.98
365056089163601,05/04/2011 03:35,310.99
365056089163601,05/04/2011 03:36,310.98
365056089163601,05/04/2011 03:37,310.99
365056089163601,05/04/2011 03:38,310.99
365056089163601,05/04/2011 03:39,310.99
365056089163601,05/04/2011 03:40,310.99
365056089163601,05/04/2011 03:41,310.98
365056089163601,05/04/2011 03:42,310.99
365056089163601,05/04/2011 03:43,310.98
365056089163601,05/04/2011 03:44,310.98
365056089163601,05/04/2011 03:45,310.98
365056089163601,05/04/2011 03:46,310.99
365056089163601,05/04/2011 03:47,310.99
365056089163601,05/04/2011 03:48,311
365056089163601,05/04/2011 03:49,311
365056089163601,05/04/2011 03:50,311
365056089163601,05/04/2011 03:51,311
365056089163601,05/04/2011 03:52,311
365056089163601,05/04/2011 03:53,311.01
365056089163601,05/04/2011 03:54,311
365056089163601,05/04/2011 03:55,311
365056089163601,05/04/2011 03:56,311
365056089163601,05/04/2011 03:57,311
365056089163601,05/04/2011 03:58,311
365056089163601,05/04/2011 03:59,311
365056089163601,05/04/2011 04:00,311.01
365056089163601,05/04/2011 04:01,311.01
365056089163601,05/04/2011 04:02,311
365056089163601,05/04/2011 04:03,311.01
365056089163601,05/04/2011 04:04,311
365056089163601,05/04/2011 04:05,311
365056089163601,05/04/2011 04:06,311
365056089163601,05/04/2011 04:07,311
365056089163601,05/04/2011 04:08,311.01
365056089163601,05/04/2011 04:09,311.01
365056089163601,05/04/2011 04:10,311.01
365056089163601,05/04/2011 04:11,311.02
365056089163601,05/04/2011 04:12,311.01
365056089163601,05/04/2011 04:13,311.01
365056089163601,05/04/2011 04:14,311.01
365056089163601,05/04/2011 04:15,311.01
365056089163601,05/04/2011 04:16,311.01
365056089163601,05/04/2011 04:17,311.02
365056089163601,05/04/2011 04:18,311.02
365056089163601,05/04/2011 04:19,311.02
365056089163601,05/04/2011 04:20,311.01
365056089163601,05/04/2011 04:21,311.02
365056089163601,05/04/2011 04:22,311.02
365056089163601,05/04/2011 04:23,311.02
365056089163601,05/04/2011 04:24,311.01
365056089163601,05/04/2011 04:25,311.02
365056089163601,05/04/2011 04:26,311.02
365056089163601,05/04/2011 04:27,311.02
365056089163601,05/04/2011 04:28,311.02
365056089163601,05/04/2011 04:29,311.02
365056089163601,05/04/2011 04:30,311.02
365056089163601,05/04/2011 04:31,311.02
365056089163601,05/04/2011 04:32,311.02
365056089163601,05/04/2011 04:33,311.02
365056089163601,05/04/2011 04:34,311.03
365056089163601,05/04/2011 04:35,311.02
365056089163601,05/04/2011 04:36,311.02
365056089163601,05/04/2011 04:37,311.02
365056089163601,05/04/2011 04:38,311.04
365056089163601,05/04/2011 04:39,311.02
365056089163601,05/04/2011 04:40,311.04
365056089163601,05/04/2011 04:41,311.03
365056089163601,05/04/2011 04:42,311.02
365056089163601,05/04/2011 04:43,311.03
365056089163601,05/04/2011 04:44,311.03
365056089163601,05/04/2011 04:45,311.03
365056089163601,05/04/2011 04:46,311.03
365056089163601,05/04/2011 04:47,311.03
365056089163601,05/04/2011 04:48,311.03
365056089163601,05/04/2011 04:49,311.04
365056089163601,05/04/2011 04:50,311.04
365056089163601,05/04/2011 04:51,311.03
365056089163601,05/04/2011 04:52,311.03
365056089163601,05/04/2011 04:53,311.03
365056089163601,05/04/2011 04:54,311.03
365056089163601,05/04/2011 04:55,311.04
365056089163601,05/04/2011 04:56,311.04
365056089163601,05/04/2011 04:57,311.04
365056089163601,05/04/2011 04:58,311.04
365056089163601,05/04/2011 04:59,311.04
365056089163601,05/04/2011 05:00,311.05
365056089163601,05/04/2011 05:01,311.04
365056089163601,05/04/2011 05:02,311.04
365056089163601,05/04/2011 05:03,311.05
365056089163601,05/04/2011 05:04,311.05
365056089163601,05/04/2011 05:05,311.04
365056089163601,05/04/2011 05:06,311.05
365056089163601,05/04/2011 05:07,311.05
365056089163601,05/04/2011 05:08,311.05
365056089163601,05/04/2011 05:09,311.05
365056089163601,05/04/2011 05:10,311.04
365056089163601,05/04/2011 05:11,311.04
365056089163601,05/04/2011 05:12,311.04
365056089163601,05/04/2011 05:13,311.04
365056089163601,05/04/2011 05:14,311.04
365056089163601,05/04/2011 05:15,311.04
365056089163601,05/04/2011 05:16,311.05
365056089163601,05/04/2011 05:17,311.04
365056089163601,05/04/2011 05:18,311.04
365056089163601,05/04/2011 05:19,311.05
365056089163601,05/04/2011 05:20,311.05
365056089163601,05/04/2011 05:21,311.06
365056089163601,05/04/2011 05:22,311.05
365056089163601,05/04/2011 05:23,311.06
365056089163601,05/04/2011 05:24,311.06
365056089163601,05/04/2011 05:25,311.05
365056089163601,05/04/2011 05:26,311.05
365056089163601,05/04/2011 05:27,311.04
365056089163601,05/04/2011 05:28,311.05
365056089163601,05/04/2011 05:29,311.06
365056089163601,05/04/2011 05:30,311.04
365056089163601,05/04/2011 05:31,311.05
365056089163601,05/04/2011 05:32,311.06
365056089163601,05/04/2011 05:33,311.05
365056089163601,05/04/2011 05:34,311.05
365056089163601,05/04/2011 05:35,311.04
365056089163601,05/04/2011 05:36,311.05
365056089163601,05/04/2011 05:37,311.06
365056089163601,05/04/2011 05:38,311.06
365056089163601,05/04/2011 05:39,311.06
365056089163601,05/04/2011 05:40,311.06
365056089163601,05/04/2011 05:41,311.06
365056089163601,05/04/2011 05:42,311.06
365056089163601,05/04/2011 05:43,311.06
365056089163601,05/04/2011 05:44,311.06
365056089163601,05/04/2011 05:45,311.06
365056089163601,05/04/2011 05:46,311.07
365056089163601,05/04/2011 05:47,311.06
365056089163601,05/04/2011 05:48,311.06
365056089163601,05/04/2011 05:49,311.07
365056089163601,05/04/2011 05:50,311.06
365056089163601,05/04/2011 05:51,311.06
365056089163601,05/04/2011 05:52,311.06
365056089163601,05/04/2011 05:53,311.07
365056089163601,05/04/2011 05:54,311.07
365056089163601,05/04/2011 05:55,311.07
365056089163601,05/04/2011 05:56,311.07
365056089163601,05/04/2011 05:57,311.07
365056089163601,05/04/2011 05:58,311.07
365056089163601,05/04/2011 05:59,311.07
365056089163601,05/04/2011 06:00,311.07
365056089163601,05/04/2011 06:01,311.07
365056089163601,05/04/2011 06:02,311.07
365056089163601,05/04/2011 06:03,311.07
365056089163601,05/04/2011 06:04,311.07
365056089163601,05/04/2011 06:05,311.07
365056089163601,05/04/2011 06:06,311.08
365056089163601,05/04/2011 06:07,311.07
365056089163601,05/04/2011 06:08,311.07
365056089163601,05/04/2011 06:09,311.07
365056089163601,05/04/2011 06:10,311.07
365056089163601,05/04/2011 06:11,311.07
365056089163601,05/04/2011 06:12,311.07
365056089163601,05/04/2011 06:13,311.07
365056089163601,05/04/2011 06:14,311.07
365056089163601,05/04/2011 06:15,311.07
365056089163601,05/04/2011 06:16,311.08
365056089163601,05/04/2011 06:17,311.08
365056089163601,05/04/2011 06:18,311.08
365056089163601,05/04/2011 06:19,311.08
365056089163601,05/04/2011 06:20,311.08
365056089163601,05/04/2011 06:21,311.08
365056089163601,05/04/2011 06:22,311.08
365056089163601,05/04/2011 06:23,311.08
365056089163601,05/04/2011 06:24,311.08
365056089163601,05/04/2011 06:25,311.08
365056089163601,05/04/2011 06:26,311.08
365056089163601,05/04/2011 06:27,311.08
365056089163601,05/04/2011 06:28,311.08
365056089163601,05/04/2011 06:29,311.08
365056089163601,05/04/2011 06:30,311.07
365056089163601,05/04/2011 06:31,311.08
365056089163601,05/04/2011 06:32,311.08
365056089163601,05/04/2011 06:33,311.07
365056089163601,05/04/2011 06:34,311.08
365056089163601,05/04/2011 06:35,311.08
365056089163601,05/04/2011 06:36,311.08
365056089163601,05/04/2011 06:37,311.09
365056089163601,05/04/2011 06:38,311.09
365056089163601,05/04/2011 06:39,311.09
365056089163601,05/04/2011 06:40,311.09
365056089163601,05/04/2011 06:41,311.08
365056089163601,05/04/2011 06:42,311.09
365056089163601,05/04/2011 06:43,311.08
365056089163601,05/04/2011 06:44,311.09
365056089163601,05/04/2011 06:45,311.09
365056089163601,05/04/2011 06:46,311.08
365056089163601,05/04/2011 06:47,311.09
365056089163601,05/04/2011 06:48,311.09
365056089163601,05/04/2011 06:49,311.1
365056089163601,05/04/2011 06:50,311.1
365056089163601,05/04/2011 06:51,311.1
365056089163601,05/04/2011 06:52,311.1
365056089163601,05/04/2011 06:53,311.1
365056089163601,05/04/2011 06:54,311.09
365056089163601,05/04/2011 06:55,311.1
365056089163601,05/04/2011 06:56,311.1
365056089163601,05/04/2011 06:57,311.1
365056089163601,05/04/2011 06:58,311.1
365056089163601,05/04/2011 06:59,311.1
365056089163601,05/04/2011 07:00,311.1
365056089163601,05/04/2011 07:01,311.1
365056089163601,05/04/2011 07:02,311.11
365056089163601,05/04/2011 07:03,311.11
365056089163601,05/04/2011 07:04,311.1
365056089163601,05/04/2011 07:05,311.11
365056089163601,05/04/2011 07:06,311.1
365056089163601,05/04/2011 07:07,311.11
365056089163601,05/04/2011 07:08,311.1
365056089163601,05/04/2011 07:09,311.1
365056089163601,05/04/2011 07:10,311.11
365056089163601,05/04/2011 07:11,311.11
365056089163601,05/04/2011 07:12,311.11
365056089163601,05/04/2011 07:13,311.11
365056089163601,05/04/2011 07:14,311.12
365056089163601,05/04/2011 07:15,311.11
365056089163601,05/04/2011 07:16,311.11
365056089163601,05/04/2011 07:17,311.12
365056089163601,05/04/2011 07:18,311.12
365056089163601,05/04/2011 07:19,311.12
365056089163601,05/04/2011 07:20,311.11
365056089163601,05/04/2011 07:21,311.12
365056089163601,05/04/2011 07:22,311.12
365056089163601,05/04/2011 07:23,311.12
365056089163601,05/04/2011 07:24,311.12
365056089163601,05/04/2011 07:25,311.12
365056089163601,05/04/2011 07:26,311.12
365056089163601,05/04/2011 07:27,311.13
365056089163601,05/04/2011 07:28,311.11
365056089163601,05/04/2011 07:29,311.13
365056089163601,05/04/2011 07:30,311.12
365056089163601,05/04/2011 07:31,311.12
365056089163601,05/04/2011 07:32,311.12
365056089163601,05/04/2011 07:33,311.12
365056089163601,05/04/2011 07:34,311.12
365056089163601,05/04/2011 07:35,311.13
365056089163601,05/04/2011 07:36,311.12
365056089163601,05/04/2011 07:37,311.12
365056089163601,05/04/2011 07:38,311.13
365056089163601,05/04/2011 07:39,311.12
365056089163601,05/04/2011 07:40,311.13
365056089163601,05/04/2011 07:41,311.14
365056089163601,05/04/2011 07:42,311.12
365056089163601,05/04/2011 07:43,311.13
365056089163601,05/04/2011 07:44,311.12
365056089163601,05/04/2011 07:45,311.13
365056089163601,05/04/2011 07:46,311.14
365056089163601,05/04/2011 07:47,311.13
365056089163601,05/04/2011 07:48,311.12
365056089163601,05/04/2011 07:49,311.12
365056089163601,05/04/2011 07:50,311.13
365056089163601,05/04/2011 07:51,311.13
365056089163601,05/04/2011 07:52,311.14
365056089163601,05/04/2011 07:53,311.14
365056089163601,05/04/2011 07:54,311.14
365056089163601,05/04/2011 07:55,311.14
365056089163601,05/04/2011 07:56,311.14
365056089163601,05/04/2011 07:57,311.14
365056089163601,05/04/2011 07:58,311.14
365056089163601,05/04/2011 07:59,311.14
365056089163601,05/04/2011 08:00,311.14
365056089163601,05/04/2011 08:01,311.14
365056089163601,05/04/2011 08:02,311.14
365056089163601,05/04/2011 08:03,311.14
365056089163601,05/04/2011 08:04,311.14
365056089163601,05/04/2011 08:05,311.13
365056089163601,05/04/2011 08:06,311.15
365056089163601,05/04/2011 08:07,311.15
365056089163601,05/04/2011 08:08,311.14
365056089163601,05/04/2011 08:09,311.15
365056089163601,05/04/2011 08:10,311.15
365056089163601,05/04/2011 08:11,311.15
365056089163601,05/04/2011 08:12,311.15
365056089163601,05/04/2011 08:13,311.15
365056089163601,05/04/2011 08:14,311.15
365056089163601,05/04/2011 08:15,311.16
365056089163601,05/04/2011 08:16,311.16
365056089163601,05/04/2011 08:17,311.16
365056089163601,05/04/2011 08:18,311.15
365056089163601,05/04/2011 08:19,311.15
365056089163601,05/04/2011 08:20,311.15
365056089163601,05/04/2011 08:21,311.15
365056089163601,05/04/2011 08:22,311.16
365056089163601,05/04/2011 08:23,311.16
365056089163601,05/04/2011 08:24,311.16
365056089163601,05/04/2011 08:25,311.16
365056089163601,05/04/2011 08:26,311.16
365056089163601,05/04/2011 08:27,311.16
365056089163601,05/04/2011 08:28,311.16
365056089163601,05/04/2011 08:29,311.15
365056089163601,05/04/2011 08:30,311.16
365056089163601,05/04/2011 08:31,311.17
365056089163601,05/04/2011 08:32,311.16
365056089163601,05/04/2011 08:33,311.16
365056089163601,05/04/2011 08:34,311.16
365056089163601,05/04/2011 08:35,311.16
365056089163601,05/04/2011 08:36,311.17
365056089163601,05/04/2011 08:37,311.16
365056089163601,05/04/2011 08:38,311.17
365056089163601,05/04/2011 08:39,311.16
365056089163601,05/04/2011 08:40,311.16
365056089163601,05/04/2011 08:41,311.16
365056089163601,05/04/2011 08:42,311.16
365056089163601,05/04/2011 08:43,311.16
365056089163601,05/04/2011 08:44,311.16
365056089163601,05/04/2011 08:45,311.16
365056089163601,05/04/2011 08:46,311.17
365056089163601,05/04/2011 08:47,311.17
365056089163601,05/04/2011 08:48,311.16
365056089163601,05/04/2011 08:49,311.17
365056089163601,05/04/2011 08:50,311.17
365056089163601,05/04/2011 08:51,311.17
365056089163601,05/04/2011 08:52,311.17
365056089163601,05/04/2011 08:53,311.17
365056089163601,05/04/2011 08:54,311.17
365056089163601,05/04/2011 08:55,311.17
365056089163601,05/04/2011 08:56,311.17
365056089163601,05/04/2011 08:57,311.17
365056089163601,05/04/2011 08:58,311.18
365056089163601,05/04/2011 08:59,311.17
365056089163601,05/04/2011 09:00,311.18
365056089163601,05/04/2011 09:01,311.17
365056089163601,05/04/2011 09:02,311.18
365056089163601,05/04/2011 09:03,311.17
365056089163601,05/04/2011 09:04,311.18
365056089163601,05/04/2011 09:05,311.19
365056089163601,05/04/2011 09:06,311.18
365056089163601,05/04/2011 09:07,311.18
365056089163601,05/04/2011 09:08,311.18
365056089163601,05/04/2011 09:09,311.18
365056089163601,05/04/2011 09:10,311.18
365056089163601,05/04/2011 09:11,311.19
365056089163601,05/04/2011 09:12,311.19
365056089163601,05/04/2011 09:13,311.19
365056089163601,05/04/2011 09:14,311.19
365056089163601,05/04/2011 09:15,311.18
365056089163601,05/04/2011 09:16,311.18
365056089163601,05/04/2011 09:17,311.18
365056089163601,05/04/2011 09:18,311.19
365056089163601,05/04/2011 09:19,311.19
365056089163601,05/04/2011 09:20,311.19
365056089163601,05/04/2011 09:21,311.19
365056089163601,05/04/2011 09:22,311.19
365056089163601,05/04/2011 09:23,311.19
365056089163601,05/04/2011 09:24,311.19
365056089163601,05/04/2011 09:25,311.19
365056089163601,05/04/2011 09:26,311.2
365056089163601,05/04/2011 09:27,311.19
365056089163601,05/04/2011 09:28,311.19
365056089163601,05/04/2011 09:29,311.19
365056089163601,05/04/2011 09:30,311.2
365056089163601,05/04/2011 09:31,311.2
365056089163601,05/04/2011 09:32,311.2
365056089163601,05/04/2011 09:33,311.21
365056089163601,05/04/2011 09:34,311.2
365056089163601,05/04/2011 09:35,311.21
365056089163601,05/04/2011 09:36,311.21
365056089163601,05/04/2011 09:37,311.2
365056089163601,05/04/2011 09:38,311.21
365056089163601,05/04/2011 09:39,311.2
365056089163601,05/04/2011 09:40,311.21
365056089163601,05/04/2011 09:41,311.21
365056089163601,05/04/2011 09:42,311.2
365056089163601,05/04/2011 09:43,311.21
365056089163601,05/04/2011 09:44,311.21
365056089163601,05/04/2011 09:45,311.21
365056089163601,05/04/2011 09:46,311.2
365056089163601,05/04/2011 09:47,311.21
365056089163601,05/04/2011 09:48,311.21
365056089163601,05/04/2011 09:49,311.21
365056089163601,05/04/2011 09:50,311.21
365056089163601,05/04/2011 09:51,311.21
365056089163601,05/04/2011 09:52,311.21
365056089163601,05/04/2011 09:53,311.21
365056089163601,05/04/2011 09:54,311.21
365056089163601,05/04/2011 09:55,311.21
365056089163601,05/04/2011 09:56,311.22
365056089163601,05/04/2011 09:57,311.21
365056089163601,05/04/2011 09:58,311.21
365056089163601,05/04/2011 09:59,311.21
365056089163601,05/04/2011 10:00,311.2
365056089163601,05/04/2011 10:01,311.21
365056089163601,05/04/2011 10:02,311.21
365056089163601,05/04/2011 10:03,311.21
365056089163601,05/04/2011 10:04,311.21
365056089163601,05/04/2011 10:05,311.22
365056089163601,05/04/2011 10:06,311.22
365056089163601,05/04/2011 10:07,311.21
365056089163601,05/04/2011 10:08,311.22
365056089163601,05/04/2011 10:09,311.21
365056089163601,05/04/2011 10:10,311.21
365056089163601,05/04/2011 10:11,311.22
365056089163601,05/04/2011 10:12,311.22
365056089163601,05/04/2011 10:13,311.22
365056089163601,05/04/2011 10:14,311.22
365056089163601,05/04/2011 10:15,311.22
365056089163601,05/04/2011 10:16,311.22
365056089163601,05/04/2011 10:17,311.22
365056089163601,05/04/2011 10:18,311.22
365056089163601,05/04/2011 10:19,311.22
365056089163601,05/04/2011 10:20,311.22
365056089163601,05/04/2011 10:21,311.22
365056089163601,05/04/2011 10:22,311.23
365056089163601,05/04/2011 10:23,311.24
365056089163601,05/04/2011 10:24,311.24
365056089163601,05/04/2011 10:25,311.24
365056089163601,05/04/2011 10:26,311.23
365056089163601,05/04/2011 10:27,311.23
365056089163601,05/04/2011 10:28,311.23
365056089163601,05/04/2011 10:29,311.24
365056089163601,05/04/2011 10:30,311.24
365056089163601,05/04/2011 10:31,311.24
365056089163601,05/04/2011 10:32,311.23
365056089163601,05/04/2011 10:33,311.24
365056089163601,05/04/2011 10:34,311.22
365056089163601,05/04/2011 10:35,311.24
365056089163601,05/04/2011 10:36,311.24
365056089163601,05/04/2011 10:37,311.24
365056089163601,05/04/2011 10:38,311.24
365056089163601,05/04/2011 10:39,311.24
365056089163601,05/04/2011 10:40,311.24
365056089163601,05/04/2011 10:41,311.24
365056089163601,05/04/2011 10:42,311.24
365056089163601,05/04/2011 10:43,311.24
365056089163601,05/04/2011 10:44,311.24
365056089163601,05/04/2011 10:45,311.24
365056089163601,05/04/2011 10:46,311.24
365056089163601,05/04/2011 10:47,311.24
365056089163601,05/04/2011 10:48,311.24
365056089163601,05/04/2011 10:49,311.24
365056089163601,05/04/2011 10:50,311.24
365056089163601,05/04/2011 10:51,311.25
365056089163601,05/04/2011 10:52,311.25
365056089163601,05/04/2011 10:53,311.25
365056089163601,05/04/2011 10:54,311.25
365056089163601,05/04/2011 10:55,311.25
365056089163601,05/04/2011 10:56,311.25
365056089163601,05/04/2011 10:57,311.25
365056089163601,05/04/2011 10:58,311.26
365056089163601,05/04/2011 10:59,311.25
365056089163601,05/04/2011 11:00,311.25
365056089163601,05/04/2011 11:01,311.25
365056089163601,05/04/2011 11:02,311.26
365056089163601,05/04/2011 11:03,311.25
365056089163601,05/04/2011 11:04,311.25
365056089163601,05/04/2011 11:05,311.26
365056089163601,05/04/2011 11:06,311.25
365056089163601,05/04/2011 11:07,311.26
365056089163601,05/04/2011 11:08,311.26
365056089163601,05/04/2011 11:09,311.26
365056089163601,05/04/2011 11:10,311.26
365056089163601,05/04/2011 11:11,311.26
365056089163601,05/04/2011 11:12,311.26
365056089163601,05/04/2011 11:13,311.26
365056089163601,05/04/2011 11:14,311.26
365056089163601,05/04/2011 11:15,311.26
365056089163601,05/04/2011 11:16,311.26
365056089163601,05/04/2011 11:17,311.26
365056089163601,05/04/2011 11:18,311.27
365056089163601,05/04/2011 11:19,311.26
365056089163601,05/04/2011 11:20,311.26
365056089163601,05/04/2011 11:21,311.26
365056089163601,05/04/2011 11:22,311.27
365056089163601,05/04/2011 11:23,311.26
365056089163601,05/04/2011 11:24,311.27
365056089163601,05/04/2011 11:25,311.27
365056089163601,05/04/2011 11:26,311.27
365056089163601,05/04/2011 11:27,311.27
365056089163601,05/04/2011 11:28,311.27
365056089163601,05/04/2011 11:29,311.27
365056089163601,05/04/2011 11:30,311.27
365056089163601,05/04/2011 11:31,311.27
365056089163601,05/04/2011 11:32,311.27
365056089163601,05/04/2011 11:33,311.28
365056089163601,05/04/2011 11:34,311.27
365056089163601,05/04/2011 11:35,311.27
365056089163601,05/04/2011 11:36,311.27
365056089163601,05/04/2011 11:37,311.28
365056089163601,05/04/2011 11:38,311.29
365056089163601,05/04/2011 11:39,311.27
365056089163601,05/04/2011 11:40,311.27
365056089163601,05/04/2011 11:41,311.28
365056089163601,05/04/2011 11:42,311.29
365056089163601,05/04/2011 11:43,311.28
365056089163601,05/04/2011 11:44,311.29
365056089163601,05/04/2011 11:45,311.29
365056089163601,05/04/2011 11:46,311.29
365056089163601,05/04/2011 11:47,311.29
365056089163601,05/04/2011 11:48,311.29
365056089163601,05/04/2011 11:49,311.28
365056089163601,05/04/2011 11:50,311.29
365056089163601,05/04/2011 11:51,311.29
365056089163601,05/04/2011 11:52,311.29
365056089163601,05/04/2011 11:53,311.29
365056089163601,05/04/2011 11:54,311.29
365056089163601,05/04/2011 11:55,311.29
365056089163601,05/04/2011 11:56,311.29
365056089163601,05/04/2011 11:57,311.29
365056089163601,05/04/2011 11:58,311.3
365056089163601,05/04/2011 11:59,311.3
365056089163601,05/04/2011 12:00,311.3